Flag for Netherlands Weather past 2 weeks in Amersfoort, Netherlands

Now
34 °F

Passing clouds.


Feels Like: 28 °F
Forecast: 35 / 44 °F
Wind: 7 mph from Southwest

Location: Deelen

Current Time: Mar 3, 2015 at 11:59:40 PM

Latest Report: Mar 3, 2015 at 11:25 PM


Visibility: N/A

Pressure: 30.04 "Hg

Humidity: 93%

Dew point: 32 °F

Location of AmersfoortLocation

Historic Weather in Amersfoort — Graph

°F

Amersfoort temperature yesterday

Maximum temperature yesterday: 46 °F (at 12:55 PM)
Minimum temperature yesterday: 34 °F (at 8:25 PM)
Average temperature yesterday: 40 °F

Past Weeks' High & Low Weather Summary

 TemperatureHumidityPressure
High52 °F (Mar 1, 1:25 PM)100% (Feb 17, 1:55 AM)30.72 "Hg (Feb 17, 1:55 AM)
Low25 °F (Feb 18, 1:25 AM)53% (Feb 27, 4:25 PM)29.30 "Hg (Feb 23, 4:25 AM)
Average39 °F87%29.88 "Hg
* Reported Feb 16 10:25 PM — Mar 3 10:55 PM, Amersfoort, Weather by CustomWeather, © 2015

Note: Actual official high and low records may vary slightly from our data, if they occured in-between our weather recording intervals... More about our weather records

Advertising

Amersfoort weather history for previous 24 hours

 ConditionsComfort  
Time TempWeatherWind HumidityBarometerVisibility
10:55 PM
Tue, Mar 3
34 °FChilly.7 mph93%30.01 "HgN/A
10:25 PM36 °FPassing clouds.8 mph93%30.01 "HgN/A
9:55 PM34 °FPassing clouds.3 mph93%30.01 "HgN/A
9:25 PM34 °FMostly cloudy.2 mph93%30.01 "HgN/A
8:55 PM32 °FPassing clouds.3 mph93%30.01 "HgN/A
8:25 PM34 °FPassing clouds.5 mph93%29.98 "HgN/A
7:55 PM34 °FPassing clouds.3 mph93%29.98 "HgN/A
7:25 PM36 °FPassing clouds.5 mph93%29.98 "HgN/A
6:55 PM36 °FPassing clouds.5 mph87%29.95 "HgN/A
6:25 PM39 °FClear.7 mph81%29.95 "HgN/A
5:55 PM41 °FPassing clouds.8 mph81%29.95 "HgN/A
5:25 PM43 °FPassing clouds.12 mph76%29.92 "HgN/A
4:55 PM43 °FBroken clouds.10 mph81%29.92 "HgN/A
4:25 PM43 °FBroken clouds.13 mph87%29.92 "HgN/A
3:55 PM43 °FBroken clouds.12 mph87%29.89 "HgN/A
3:25 PM43 °FMostly cloudy.15 mph93%29.89 "HgN/A
2:55 PM39 °FDrizzle. Partly sunny.12 mph100%29.92 "Hg6 mi
2:25 PM37 °FDrizzle. Cloudy.9 mph100%29.92 "Hg6 mi
1:55 PM37 °FRain showers. Cloudy.17 mph93%29.92 "Hg6 mi
1:25 PM39 °FLight rain. Broken clouds.15 mph93%29.92 "HgN/A
12:55 PM37 °FLight rain. Mostly cloudy.16 mph93%29.92 "Hg6 mi
12:25 PM37 °FDrizzle. Broken clouds.16 mph93%29.95 "HgN/A
11:55 AM39 °FSprinkles. Mostly cloudy.15 mph93%29.95 "HgN/A
11:25 AM39 °FLight rain. Cloudy.18 mph87%29.95 "HgN/A
10:55 AM39 °FDrizzle. More clouds than sun.15 mph87%29.98 "HgN/A
10:25 AM39 °FPartly sunny.15 mph87%29.98 "HgN/A
9:55 AM41 °FMore clouds than sun.16 mph81%29.98 "HgN/A
9:25 AM37 °FBroken clouds.13 mph87%29.98 "HgN/A
8:55 AM37 °FBroken clouds.13 mph87%29.98 "HgN/A
8:25 AM36 °FPartly sunny.13 mph87%29.98 "HgN/A
7:55 AM36 °FPartly sunny.13 mph87%29.98 "HgN/A
7:25 AM36 °FPassing clouds.13 mph87%29.98 "HgN/A
6:55 AM36 °FPassing clouds.13 mph87%29.98 "HgN/A
6:25 AM36 °FPassing clouds.14 mph87%29.98 "HgN/A
5:55 AM36 °FPassing clouds.12 mph87%29.98 "HgN/A
5:25 AM36 °FChilly.13 mph87%29.98 "HgN/A
4:55 AM36 °FPassing clouds.10 mph87%29.98 "HgN/A
4:25 AM36 °FPassing clouds.10 mph87%29.95 "HgN/A
3:55 AM36 °FPassing clouds.8 mph87%29.98 "HgN/A
3:25 AM36 °FPassing clouds.9 mph87%29.98 "HgN/A
2:55 AM36 °FChilly.9 mph87%29.95 "HgN/A
2:25 AM36 °FPassing clouds.13 mph87%29.95 "HgN/A
1:55 AM36 °FPassing clouds.13 mph87%29.95 "HgN/A
1:25 AM36 °FPassing clouds.10 mph81%29.95 "HgN/A
12:55 AM36 °FPassing clouds.12 mph81%29.95 "HgN/A
12:25 AM36 °FPassing clouds.10 mph81%29.92 "HgN/A
11:55 PM
Mon, Mar 2
36 °FPassing clouds.10 mph81%29.92 "HgN/A
11:25 PM36 °FPassing clouds.10 mph87%29.92 "HgN/A
Weather by CustomWeather, © 2015

See weather overviewHow to use our weather pages